Regional Weather Roundup
Issued by NWS

Home | Current Version | Previous Version | Graphics & Text | Print | Product List | Glossary On
Versions: 1 2 3 4 5 6 7 8 9 10 11 12 13 14 15 16 17 18 19 20 21 22 23 24 25 26 27 28 29 30 31 32 33 34 35 36 37 38 39 40 41 42 43 44 45 46 47 48 49 50
000
ASUS45 KTFX 180010
RWRMT
MONTANA REGIONAL WEATHER ROUNDUP
NATIONAL WEATHER SERVICE GREAT FALLS MT
500 PM MST WED JAN 17 2018

NOTE: "FAIR" INDICATES FEW OR NO CLOUDS BELOW 12000 FEET WITH NO
SIGNIFICANT WEATHER AND/OR OBSTRUCTIONS TO VISIBILITY.

MTZ001>007-043-180100-
WEST OF THE DIVIDE

CITY           SKY/WX    TMP DP  RH WIND       PRES   REMARKS
KALISPELL      CLOUDY    29  28  96 CALM      30.15S
MISSOULA       CLOUDY    30  25  81 CALM      30.15F
BUTTE          FAIR      26  18  71 SE7       30.17F WCI  18
MULLAN PASS    MOCLDY    30  28  92 S7        30.07S WCI  23
ANACONDA         N/A     37  18  44 SE12G17   30.12F WCI  30
DEER LODGE       N/A     37  21  52 S5        30.14F
EUREKA           N/A     30  27  86 MISG      30.12F
HAMILTON         N/A     39  27  60 CALM      30.13F
PLAINS           N/A     30  26  85 CALM      30.13F
RONAN          FOG       27  27 100 SW3       30.15F VSB 1/4
$$

MTZ008-052>055-180100-
SOUTHWEST MONTANA

CITY           SKY/WX    TMP DP  RH WIND       PRES   REMARKS
BOZEMAN        FAIR      25  18  74 SE3       30.20S
DILLON         FAIR      33  23  66 S9        30.19F WCI  25
ENNIS          MOCLDY    37  25  60 S17G24    30.25F WCI  28
W YELLOWSTONE  CLOUDY    30  25  80 SW7       30.33R WCI  23
THREE FORKS      N/A     30  22  72 CALM      30.15F
TWIN BRIDGES     N/A     36  21  54 CALM      30.15
$$

MTZ009-010-012-014-046-048-049-054-180100-
EAST SLOPES AND CENTRAL MONTANA

CITY           SKY/WX    TMP DP  RH WIND       PRES   REMARKS
CUT BANK       FAIR      41  23  48 SW21G30   29.94F
GREAT FALLS    FAIR      41  23  48 SW24      29.99F
MALMSTROM AFB  MOCLDY    39  27  61 SW22      29.99F WCI  29
HELENA         FAIR      27  20  75 S5        30.15F
AUGUSTA        FAIR      37  24  58 S16G23    29.99F WCI  28
CHOTEAU          N/A     39  25  56 VRB5G14   29.98F
FAIRFIELD      MOCLDY    40  22  48 S22G32    29.97F
POWER          MOCLDY    40  23  52 SW23      29.97F
ULM            MOCLDY    40  25  56 W12       30.03F
WHITE SULPHUR    N/A     34  21  60 S17       30.13F WCI  23
$$

MTZ011-013-016-021-045-047-050-051-180100-
NORTH CENTRAL MONTANA

CITY           SKY/WX    TMP DP  RH WIND       PRES   REMARKS
HAVRE          FAIR      28  20  71 SW8       29.98F WCI  20
LEWISTOWN      FAIR      36  22  56 SW22      30.04F WCI  25
N BAR RANCH    FAIR      37  16  41 SW9       30.07F WCI  31
CHINOOK          N/A     25  19  80 NE3       29.99F
DENTON         FAIR      41  23  48 MISG      29.98F
GRASS RANGE    MOCLDY    40  20  44 W13       30.00F
STANFORD       FAIR      37  23  57 SE3       30.03F
$$

MTZ017>020-022>027-061-062-180100-
NORTHEAST MONTANA

CITY           SKY/WX    TMP DP  RH WIND       PRES   REMARKS
GLASGOW        FAIR      21  15  78 E3        30.01S
GLENDIVE       FAIR      22  16  78 S10       30.05F WCI  11
JORDAN           N/A     34  24  67 W12       30.03F WCI  25
MALTA          CLEAR     12  10  92 CALM      30.01S
SIDNEY         FAIR      24  17  74 S13       30.03F WCI  12
WOLF POINT     FAIR      21  12  68 W3        30.03F
PLENTYWOOD       N/A     30  21  69 W9        29.97F WCI  22
POPLAR           N/A     21  16  79 CALM      30.03F
SCOBEY           N/A     29  17  60 SW3       29.96
$$

MTZ028>42-056>058-180100-
SOUTHCENTRAL AND SOUTHEAST MONTANA

CITY           SKY/WX    TMP DP  RH WIND       PRES   REMARKS
BAKER          FAIR      31  21  66 SW20G26   30.08F WCI  19
BILLINGS       MOCLDY    37  19  48 SW22      30.10F WCI  26
LIVINGSTON     FAIR      43  26  51 SW26G36   30.12F
MILES CITY     FAIR      16  11  80 W7        30.09F WCI   6
BIG TIMBER     CLEAR     41  25  52 W16       30.14F
EKALAKA          N/A     34  20  57 S7        30.07  WCI  28
FORSYTH          N/A     25  12  58 CALM      30.10S
HARLOWTON      MOCLDY    36  23  58 W9        30.09F WCI  29
LAUREL           N/A     37  19  48 SW21      30.12F WCI  27
ROUNDUP          N/A     40  21  46 S16       30.00S
$$

REGIONAL REPORTS...DAKOTAS

CITY           SKY/WX    TMP DP  RH WIND       PRES   REMARKS
WILLISTON      FAIR      28  20  71 SW12      30.01F WCI  18
MINOT          FAIR      34  22  61 SW20      29.93F WCI  23
DICKINSON      FAIR      29  20  69 W16       30.03F WCI  17
BEACH          FAIR      30  19  64 SW17      30.08F WCI  18
CROSBY         FAIR      30  21  69 SW22      29.92F WCI  17
TIOGA          FAIR      27  19  74 W10       29.97F WCI  17
WATFORD CITY   FAIR      28  21  74 SW13      30.01F WCI  18
BISMARCK       FAIR      33  23  66 W10       30.06F WCI  25
GRAND FORKS    FAIR      31  24  75 SW9       29.89F WCI  23
FARGO          FAIR      31  22  69 SW15      29.98F WCI  20
BUFFALO SD       N/A     28  20  71 W10       30.06F WCI  19
RAPID CITY     FAIR      35  20  54 S6        30.18F WCI  30
$$

REGIONAL REPORTS...WYOMING/IDAHO/WASHINGTON

CITY           SKY/WX    TMP DP  RH WIND       PRES   REMARKS
GILLETTE       FAIR      36  23  59 SE5       30.16F
SHERIDAN       FAIR      26  17  68 SW7       30.12F WCI  18
BUFFALO WY     FAIR      36  19  50 MISG      30.15F
CODY           FAIR      27  19  72 CALM      30.20F
YELLOWSTONE LA   N/A     26  21  81 CALM      30.34S
IDAHO FALLS    MOCLDY    36  29  75 NE3       30.35F
SALMON         CLOUDY    31  23  72 CALM      30.30F
BOISE          FAIR      48  34  58 SE10      30.23F
SPOKANE        CLOUDY    38  35  89 E7        30.03F
$$

REGIONAL REPORTS...ALBERTA

CITY           SKY/WX    TMP DP  RH WIND       PRES   REMARKS
CALGARY        CLOUDY    36  21  55 S5        29.78F
EDMONTON       PTCLDY    30  18  59 SE3       29.75F
FORT MCMURRAY  CLEAR     36  30  80 SW9       29.67F WCI  29
HIGH LEVEL     PTCLDY    27  25  93 S5        29.55F
LETHBRIDGE     MOCLDY    39  27  60 W12G23    29.88F WCI  32
LLOYDMINSTER   PTCLDY    28  21  74 W10       29.80S WCI  19
MEDICINE HAT   MOCLDY    36  25  64 SW15G21   29.86F WCI  26
MILK RIVER       N/A     32  25  74 SE6         N/A  WCI  26
PEACE RIVER    PTCLDY    27  21  80 SW8       29.65F WCI  18
PINCHER CREEK  CLEAR     41  27  56 W30G44    29.90F
WATERTON GATE    N/A     41  21  45 SW20G36     N/A
$$

REGIONAL REPORTS...SASKATCHEWAN

CITY           SKY/WX    TMP DP  RH WIND       PRES   REMARKS
CORONACH         N/A     28  19  69 W15         N/A  WCI  17
CYPRESS HILLS    N/A     37  10  32 SW14G20     N/A  WCI  29
ESTEVAN        PTCLDY    30  21  69 SW15G22   29.89F WCI  19
MOOSE JAW        N/A     36  21  55 W17         N/A  WCI  25
PRINCE ALBERT  PTCLDY    27  23  86 W6        29.75R WCI  20
REGINA         PTCLDY    32  23  69 W17       29.86R WCI  21
ROCKGLEN         N/A     28  19  69 W16         N/A  WCI  17
SASKATOON      PTCLDY    34  27  75 SW14      29.83R WCI  24
SWIFT CURRENT  CLEAR     32  21  64 W12       29.90F WCI  23
VAL MARIE        N/A     27  19  74 S8          N/A  WCI  18
$$



USA.gov is the U.S. government's official web portal to all federal, state and local government web resources and services.